Year,Month,Day,Hour,Minute,Value (Times are PST for temperature in C)
2011,05,20,00,00,11.40
2011,05,20,00,01,11.40
2011,05,20,00,02,11.30
2011,05,20,00,03,11.30
2011,05,20,00,04,11.30
2011,05,20,00,05,11.30
2011,05,20,00,06,11.30
2011,05,20,00,07,11.30
2011,05,20,00,08,11.30
2011,05,20,00,09,11.20
2011,05,20,00,10,11.20
2011,05,20,00,11,11.20
2011,05,20,00,12,11.10
2011,05,20,00,13,11.10
2011,05,20,00,14,11.10
2011,05,20,00,15,11.00
2011,05,20,00,16,11.00
2011,05,20,00,17,11.00
2011,05,20,00,18,10.90
2011,05,20,00,19,10.90
2011,05,20,00,20,10.90
2011,05,20,00,21,10.90
2011,05,20,00,22,10.90
2011,05,20,00,23,10.80
2011,05,20,00,24,10.80
2011,05,20,00,25,10.80
2011,05,20,00,26,10.80
2011,05,20,00,27,10.80
2011,05,20,00,28,10.80
2011,05,20,00,29,10.80
2011,05,20,00,30,10.70
2011,05,20,00,31,10.70
2011,05,20,00,32,10.70
2011,05,20,00,33,10.70
2011,05,20,00,34,10.70
2011,05,20,00,35,10.70
2011,05,20,00,36,10.70
2011,05,20,00,37,10.60
2011,05,20,00,38,10.60
2011,05,20,00,39,10.60
2011,05,20,00,40,10.60
2011,05,20,00,41,10.50
2011,05,20,00,42,10.50
2011,05,20,00,43,10.50
2011,05,20,00,44,10.40
2011,05,20,00,45,10.40
2011,05,20,00,46,10.40
2011,05,20,00,47,10.30
2011,05,20,00,48,10.30
2011,05,20,00,49,10.30
2011,05,20,00,50,10.20
2011,05,20,00,51,10.20
2011,05,20,00,52,10.20
2011,05,20,00,53,10.20
2011,05,20,00,54,10.10
2011,05,20,00,55,10.10
2011,05,20,00,56,10.10
2011,05,20,00,57,10.10
2011,05,20,00,58,10.00
2011,05,20,00,59,10.00
2011,05,20,01,00,10.00
2011,05,20,01,01,10.00
2011,05,20,01,02,9.90
2011,05,20,01,03,9.90
2011,05,20,01,04,9.90
2011,05,20,01,05,9.90
2011,05,20,01,06,9.90
2011,05,20,01,07,9.90
2011,05,20,01,08,9.90
2011,05,20,01,09,9.90
2011,05,20,01,10,9.90
2011,05,20,01,11,9.80
2011,05,20,01,12,9.80
2011,05,20,01,13,9.80
2011,05,20,01,14,9.80
2011,05,20,01,15,9.80
2011,05,20,01,16,9.80
2011,05,20,01,17,9.80
2011,05,20,01,18,9.80
2011,05,20,01,19,9.80
2011,05,20,01,20,9.80
2011,05,20,01,21,9.80
2011,05,20,01,22,9.80
2011,05,20,01,23,9.80
2011,05,20,01,24,9.70
2011,05,20,01,25,9.70
2011,05,20,01,26,9.70
2011,05,20,01,27,9.70
2011,05,20,01,28,9.70
2011,05,20,01,29,9.70
2011,05,20,01,30,9.60
2011,05,20,01,31,9.60
2011,05,20,01,32,9.50
2011,05,20,01,33,9.50
2011,05,20,01,34,9.40
2011,05,20,01,35,9.40
2011,05,20,01,36,9.30
2011,05,20,01,37,9.30
2011,05,20,01,38,9.30
2011,05,20,01,39,9.30
2011,05,20,01,40,9.30
2011,05,20,01,41,9.30
2011,05,20,01,42,9.30
2011,05,20,01,43,9.40
2011,05,20,01,44,9.40
2011,05,20,01,45,9.40
2011,05,20,01,46,9.40
2011,05,20,01,47,9.30
2011,05,20,01,48,9.30
2011,05,20,01,49,9.30
2011,05,20,01,50,9.20
2011,05,20,01,51,9.20
2011,05,20,01,52,9.10
2011,05,20,01,53,9.10
2011,05,20,01,54,9.00
2011,05,20,01,55,9.00
2011,05,20,01,56,8.90
2011,05,20,01,57,8.90
2011,05,20,01,58,8.80
2011,05,20,01,59,8.80
2011,05,20,02,00,8.80
2011,05,20,02,01,8.70
2011,05,20,02,02,8.70
2011,05,20,02,03,8.60
2011,05,20,02,04,8.60
2011,05,20,02,05,8.50
2011,05,20,02,06,8.50
2011,05,20,02,07,8.40
2011,05,20,02,08,8.40
2011,05,20,02,09,8.40
2011,05,20,02,10,8.30
2011,05,20,02,11,8.30
2011,05,20,02,12,8.30
2011,05,20,02,13,8.20
2011,05,20,02,14,8.20
2011,05,20,02,15,8.20
2011,05,20,02,16,8.10
2011,05,20,02,17,8.10
2011,05,20,02,18,8.10
2011,05,20,02,19,8.00
2011,05,20,02,20,8.00
2011,05,20,02,21,8.00
2011,05,20,02,22,7.90
2011,05,20,02,23,7.90
2011,05,20,02,24,7.90
2011,05,20,02,25,7.80
2011,05,20,02,26,7.80
2011,05,20,02,27,7.80
2011,05,20,02,28,7.80
2011,05,20,02,29,7.70
2011,05,20,02,30,7.70
2011,05,20,02,31,7.70
2011,05,20,02,32,7.70
2011,05,20,02,33,7.60
2011,05,20,02,34,7.60
2011,05,20,02,35,7.60
2011,05,20,02,36,7.60
2011,05,20,02,37,7.60
2011,05,20,02,38,7.50
2011,05,20,02,39,7.50
2011,05,20,02,40,7.40
2011,05,20,02,41,7.40
2011,05,20,02,42,7.40
2011,05,20,02,43,7.40
2011,05,20,02,44,7.40
2011,05,20,02,45,7.40
2011,05,20,02,46,7.40
2011,05,20,02,47,7.30
2011,05,20,02,48,7.30
2011,05,20,02,49,7.30
2011,05,20,02,50,7.30
2011,05,20,02,51,7.30
2011,05,20,02,52,7.30
2011,05,20,02,53,7.20
2011,05,20,02,54,7.20
2011,05,20,02,55,7.20
2011,05,20,02,56,7.20
2011,05,20,02,57,7.10
2011,05,20,02,58,7.10
2011,05,20,02,59,7.10
2011,05,20,03,00,7.10
2011,05,20,03,01,7.10
2011,05,20,03,02,7.10
2011,05,20,03,03,7.10
2011,05,20,03,04,7.10
2011,05,20,03,05,7.10
2011,05,20,03,06,7.10
2011,05,20,03,07,7.10
2011,05,20,03,08,7.10
2011,05,20,03,09,7.10
2011,05,20,03,10,7.10
2011,05,20,03,11,7.10
2011,05,20,03,12,7.10
2011,05,20,03,13,7.10
2011,05,20,03,14,7.10
2011,05,20,03,15,7.10
2011,05,20,03,16,7.10
2011,05,20,03,17,7.10
2011,05,20,03,18,7.10
2011,05,20,03,19,7.10
2011,05,20,03,20,7.10
2011,05,20,03,21,7.10
2011,05,20,03,22,7.10
2011,05,20,03,23,7.10
2011,05,20,03,24,7.00
2011,05,20,03,25,7.00
2011,05,20,03,26,7.00
2011,05,20,03,27,7.00
2011,05,20,03,28,6.90
2011,05,20,03,29,6.90
2011,05,20,03,30,6.90
2011,05,20,03,31,6.90
2011,05,20,03,32,6.90
2011,05,20,03,33,6.90
2011,05,20,03,34,6.90
2011,05,20,03,35,6.80
2011,05,20,03,36,6.80
2011,05,20,03,37,6.80
2011,05,20,03,38,6.80
2011,05,20,03,39,6.80
2011,05,20,03,40,6.80
2011,05,20,03,41,6.80
2011,05,20,03,42,6.80
2011,05,20,03,43,6.80
2011,05,20,03,44,6.80
2011,05,20,03,45,6.70
2011,05,20,03,46,6.70
2011,05,20,03,47,6.70
2011,05,20,03,48,6.70
2011,05,20,03,49,6.60
2011,05,20,03,50,6.60
2011,05,20,03,51,6.60
2011,05,20,03,52,6.50
2011,05,20,03,53,6.50
2011,05,20,03,54,6.50
2011,05,20,03,55,6.40
2011,05,20,03,56,6.40
2011,05,20,03,57,6.40
2011,05,20,03,58,6.40
2011,05,20,03,59,6.40
2011,05,20,04,00,6.40
2011,05,20,04,01,6.30
2011,05,20,04,02,6.30
2011,05,20,04,03,6.30
2011,05,20,04,04,6.30
2011,05,20,04,05,6.30
2011,05,20,04,06,6.30
2011,05,20,04,07,6.30
2011,05,20,04,08,6.30
2011,05,20,04,09,6.30
2011,05,20,04,10,6.20
2011,05,20,04,11,6.20
2011,05,20,04,12,6.20
2011,05,20,04,13,6.20
2011,05,20,04,14,6.20
2011,05,20,04,15,6.20
2011,05,20,04,16,6.20
2011,05,20,04,17,6.20
2011,05,20,04,18,6.20
2011,05,20,04,19,6.20
2011,05,20,04,20,6.10
2011,05,20,04,21,6.10
2011,05,20,04,22,6.10
2011,05,20,04,23,6.10
2011,05,20,04,24,6.10
2011,05,20,04,25,6.10
2011,05,20,04,26,6.10
2011,05,20,04,27,6.10
2011,05,20,04,28,6.10
2011,05,20,04,29,6.10
2011,05,20,04,30,6.10
2011,05,20,04,31,6.10
2011,05,20,04,32,6.10
2011,05,20,04,33,6.10
2011,05,20,04,34,6.10
2011,05,20,04,35,6.10
2011,05,20,04,36,6.10
2011,05,20,04,37,6.10
2011,05,20,04,38,6.10
2011,05,20,04,39,6.10
2011,05,20,04,40,6.10
2011,05,20,04,41,6.10
2011,05,20,04,42,6.10
2011,05,20,04,43,6.10
2011,05,20,04,44,6.00
2011,05,20,04,45,6.00
2011,05,20,04,46,6.00
2011,05,20,04,47,6.00
2011,05,20,04,48,6.00
2011,05,20,04,49,6.00
2011,05,20,04,50,5.90
2011,05,20,04,51,5.90
2011,05,20,04,52,5.90
2011,05,20,04,53,5.90
2011,05,20,04,54,5.90
2011,05,20,04,55,5.90
2011,05,20,04,56,5.90
2011,05,20,04,57,5.90
2011,05,20,04,58,5.90
2011,05,20,04,59,5.90
2011,05,20,05,00,5.90
2011,05,20,05,01,5.90
2011,05,20,05,02,5.80
2011,05,20,05,03,5.80
2011,05,20,05,04,5.80
2011,05,20,05,05,5.80
2011,05,20,05,06,5.80
2011,05,20,05,07,5.80
2011,05,20,05,08,5.80
2011,05,20,05,09,5.80
2011,05,20,05,10,5.80
2011,05,20,05,11,5.80
2011,05,20,05,12,5.80
2011,05,20,05,13,5.80
2011,05,20,05,14,5.80
2011,05,20,05,15,5.80
2011,05,20,05,16,5.80
2011,05,20,05,17,5.70
2011,05,20,05,18,5.70
2011,05,20,05,19,5.70
2011,05,20,05,20,5.70
2011,05,20,05,21,5.70
2011,05,20,05,22,5.70
2011,05,20,05,23,5.70
2011,05,20,05,24,5.70
2011,05,20,05,25,5.70
2011,05,20,05,26,5.70
2011,05,20,05,27,5.70
2011,05,20,05,28,5.70
2011,05,20,05,29,5.70
2011,05,20,05,30,5.70
2011,05,20,05,31,5.70
2011,05,20,05,32,5.70
2011,05,20,05,33,5.70
2011,05,20,05,34,5.70
2011,05,20,05,35,5.70
2011,05,20,05,36,5.70
2011,05,20,05,37,5.60
2011,05,20,05,38,5.60
2011,05,20,05,39,5.60
2011,05,20,05,40,5.60
2011,05,20,05,41,5.60
2011,05,20,05,42,5.60
2011,05,20,05,43,5.60
2011,05,20,05,44,5.60
2011,05,20,05,45,5.60
2011,05,20,05,46,5.60
2011,05,20,05,47,5.60
2011,05,20,05,48,5.60
2011,05,20,05,49,5.60
2011,05,20,05,50,5.60
2011,05,20,05,51,5.60
2011,05,20,05,52,5.60
2011,05,20,05,53,5.60
2011,05,20,05,54,5.60
2011,05,20,05,55,5.70
2011,05,20,05,56,5.70
2011,05,20,05,57,5.70
2011,05,20,05,58,5.70
2011,05,20,05,59,5.70
2011,05,20,06,00,5.70
2011,05,20,06,01,5.70
2011,05,20,06,02,5.70
2011,05,20,06,03,5.70
2011,05,20,06,04,5.80
2011,05,20,06,05,5.80
2011,05,20,06,06,5.80
2011,05,20,06,07,5.80
2011,05,20,06,08,5.80
2011,05,20,06,09,5.90
2011,05,20,06,10,5.90
2011,05,20,06,11,5.90
2011,05,20,06,12,6.00
2011,05,20,06,13,6.00
2011,05,20,06,14,6.10
2011,05,20,06,15,6.10
2011,05,20,06,16,6.10
2011,05,20,06,17,6.20
2011,05,20,06,18,6.20
2011,05,20,06,19,6.20
2011,05,20,06,20,6.30
2011,05,20,06,21,6.30
2011,05,20,06,22,6.30
2011,05,20,06,23,6.40
2011,05,20,06,24,6.40
2011,05,20,06,25,6.40
2011,05,20,06,26,6.40
2011,05,20,06,27,6.30
2011,05,20,06,28,6.30
2011,05,20,06,29,6.30
2011,05,20,06,30,6.30
2011,05,20,06,31,6.30
2011,05,20,06,32,6.30
2011,05,20,06,33,6.30
2011,05,20,06,34,6.30
2011,05,20,06,35,6.30
2011,05,20,06,36,6.30
2011,05,20,06,37,6.30
2011,05,20,06,38,6.30
2011,05,20,06,39,6.40
2011,05,20,06,40,6.40
2011,05,20,06,41,6.40
2011,05,20,06,42,6.40
2011,05,20,06,43,6.40
2011,05,20,06,44,6.50
2011,05,20,06,45,6.50
2011,05,20,06,46,6.50
2011,05,20,06,47,6.50
2011,05,20,06,48,6.60
2011,05,20,06,49,6.60
2011,05,20,06,50,6.60
2011,05,20,06,51,6.60
2011,05,20,06,52,6.70
2011,05,20,06,53,6.70
2011,05,20,06,54,6.70
2011,05,20,06,55,6.70
2011,05,20,06,56,6.70
2011,05,20,06,57,6.80
2011,05,20,06,58,6.80
2011,05,20,06,59,6.80
2011,05,20,07,00,6.80
2011,05,20,07,01,6.90
2011,05,20,07,02,6.90
2011,05,20,07,03,6.90
2011,05,20,07,04,6.90
2011,05,20,07,05,7.00
2011,05,20,07,06,7.00
2011,05,20,07,07,7.10
2011,05,20,07,08,7.10
2011,05,20,07,09,7.20
2011,05,20,07,10,7.20
2011,05,20,07,11,7.20
2011,05,20,07,12,7.30
2011,05,20,07,13,7.40
2011,05,20,07,14,7.40
2011,05,20,07,15,7.40
2011,05,20,07,16,7.50
2011,05,20,07,17,7.60
2011,05,20,07,18,7.60
2011,05,20,07,19,7.70
2011,05,20,07,20,7.70
2011,05,20,07,21,7.80
2011,05,20,07,22,7.80
2011,05,20,07,23,7.80
2011,05,20,07,24,7.80
2011,05,20,07,25,7.90
2011,05,20,07,26,7.90
2011,05,20,07,27,7.80
2011,05,20,07,28,7.80
2011,05,20,07,29,7.80
2011,05,20,07,30,7.80
2011,05,20,07,31,7.80
2011,05,20,07,32,7.80
2011,05,20,07,33,7.80
2011,05,20,07,34,7.80
2011,05,20,07,35,7.80
2011,05,20,07,36,7.80
2011,05,20,07,37,7.80
2011,05,20,07,38,7.80
2011,05,20,07,39,7.80
2011,05,20,07,40,7.80
2011,05,20,07,41,7.80
2011,05,20,07,42,7.80
2011,05,20,07,43,7.80
2011,05,20,07,44,7.80
2011,05,20,07,45,7.80
2011,05,20,07,46,7.90
2011,05,20,07,47,7.90
2011,05,20,07,48,7.90
2011,05,20,07,49,7.90
2011,05,20,07,50,8.00
2011,05,20,07,51,8.00
2011,05,20,07,52,8.00
2011,05,20,07,53,8.10
2011,05,20,07,54,8.10
2011,05,20,07,55,8.20
2011,05,20,07,56,8.20
2011,05,20,07,57,8.20
2011,05,20,07,58,8.30
2011,05,20,07,59,8.30
2011,05,20,08,00,8.40
2011,05,20,08,01,8.40
2011,05,20,08,02,8.50
2011,05,20,08,03,8.60
2011,05,20,08,04,8.60
2011,05,20,08,05,8.70
2011,05,20,08,06,8.70
2011,05,20,08,07,8.80
2011,05,20,08,08,8.90
2011,05,20,08,09,8.90
2011,05,20,08,10,9.00
2011,05,20,08,11,9.00
2011,05,20,08,12,9.10
2011,05,20,08,13,9.10
2011,05,20,08,14,9.20
2011,05,20,08,15,9.20
2011,05,20,08,16,9.20
2011,05,20,08,17,9.20
2011,05,20,08,18,9.20
2011,05,20,08,19,9.20
2011,05,20,08,20,9.20
2011,05,20,08,21,9.10
2011,05,20,08,22,9.00
2011,05,20,08,23,9.00
2011,05,20,08,24,8.90
2011,05,20,08,25,8.90
2011,05,20,08,26,8.90
2011,05,20,08,27,8.90
2011,05,20,08,28,8.90
2011,05,20,08,29,8.90
2011,05,20,08,30,8.90
2011,05,20,08,31,8.90
2011,05,20,08,32,9.00
2011,05,20,08,33,9.00
2011,05,20,08,34,9.10
2011,05,20,08,35,9.10
2011,05,20,08,36,9.20
2011,05,20,08,37,9.20
2011,05,20,08,38,9.30
2011,05,20,08,39,9.40
2011,05,20,08,40,9.40
2011,05,20,08,41,9.50
2011,05,20,08,42,9.60
2011,05,20,08,43,9.60
2011,05,20,08,44,9.70
2011,05,20,08,45,9.70
2011,05,20,08,46,9.80
2011,05,20,08,47,9.80
2011,05,20,08,48,9.80
2011,05,20,08,49,9.90
2011,05,20,08,50,9.90
2011,05,20,08,51,9.90
2011,05,20,08,52,9.90
2011,05,20,08,53,10.00
2011,05,20,08,54,9.90
2011,05,20,08,55,9.90
2011,05,20,08,56,9.90
2011,05,20,08,57,9.90
2011,05,20,08,58,9.90
2011,05,20,08,59,9.80
2011,05,20,09,00,9.80
2011,05,20,09,01,9.80
2011,05,20,09,02,9.90
2011,05,20,09,03,9.90
2011,05,20,09,04,9.90
2011,05,20,09,05,9.90
2011,05,20,09,06,9.90
2011,05,20,09,07,9.90
2011,05,20,09,08,10.00
2011,05,20,09,09,10.00
2011,05,20,09,10,10.00
2011,05,20,09,11,10.10
2011,05,20,09,12,10.10
2011,05,20,09,13,10.10
2011,05,20,09,14,10.20
2011,05,20,09,15,10.20
2011,05,20,09,16,10.30
2011,05,20,09,17,10.40
2011,05,20,09,18,10.40
2011,05,20,09,19,10.50
2011,05,20,09,20,10.60
2011,05,20,09,21,10.60
2011,05,20,09,22,10.70
2011,05,20,09,23,10.80
2011,05,20,09,24,10.90
2011,05,20,09,25,11.00
2011,05,20,09,26,11.00
2011,05,20,09,27,11.10
2011,05,20,09,28,11.20
2011,05,20,09,29,11.30
2011,05,20,09,30,11.40
2011,05,20,09,31,11.50
2011,05,20,09,32,11.50
2011,05,20,09,33,11.60
2011,05,20,09,34,11.60
2011,05,20,09,35,11.70
2011,05,20,09,36,11.70
2011,05,20,09,37,11.70
2011,05,20,09,38,11.70
2011,05,20,09,39,11.70
2011,05,20,09,40,11.70
2011,05,20,09,41,11.70
2011,05,20,09,42,11.70
2011,05,20,09,43,11.80
2011,05,20,09,44,11.80
2011,05,20,09,45,11.80
2011,05,20,09,46,11.80
2011,05,20,09,47,11.80
2011,05,20,09,48,11.80
2011,05,20,09,49,11.80
2011,05,20,09,50,11.90
2011,05,20,09,51,11.90
2011,05,20,09,52,11.80
2011,05,20,09,53,11.80
2011,05,20,09,54,11.80
2011,05,20,09,55,11.90
2011,05,20,09,56,11.90
2011,05,20,09,57,11.90
2011,05,20,09,58,11.90
2011,05,20,09,59,11.90
2011,05,20,10,00,11.90
2011,05,20,10,01,12.00
2011,05,20,10,02,12.10
2011,05,20,10,03,12.20
2011,05,20,10,04,12.30
2011,05,20,10,05,12.50
2011,05,20,10,06,12.60
2011,05,20,10,07,12.80
2011,05,20,10,08,12.90
2011,05,20,10,09,13.10
2011,05,20,10,10,13.20
2011,05,20,10,11,13.40
2011,05,20,10,12,13.50
2011,05,20,10,13,13.70
2011,05,20,10,14,13.80
2011,05,20,10,15,14.00
2011,05,20,10,16,14.20
2011,05,20,10,17,14.30
2011,05,20,10,18,14.50
2011,05,20,10,19,14.60
2011,05,20,10,20,14.70
2011,05,20,10,21,14.90
2011,05,20,10,22,15.00
2011,05,20,10,23,15.20
2011,05,20,10,24,15.30
2011,05,20,10,25,15.40
2011,05,20,10,26,15.60
2011,05,20,10,27,15.70
2011,05,20,10,28,15.80
2011,05,20,10,29,15.80
2011,05,20,10,30,16.00
2011,05,20,10,31,16.00
2011,05,20,10,32,16.10
2011,05,20,10,33,16.20
2011,05,20,10,34,16.20
2011,05,20,10,35,16.30
2011,05,20,10,36,16.30
2011,05,20,10,37,16.40
2011,05,20,10,38,16.40
2011,05,20,10,39,16.40
2011,05,20,10,40,16.40
2011,05,20,10,41,16.30
2011,05,20,10,42,16.30
2011,05,20,10,43,16.10
2011,05,20,10,44,16.00
2011,05,20,10,45,15.90
2011,05,20,10,46,15.80
2011,05,20,10,47,15.70
2011,05,20,10,48,15.70
2011,05,20,10,49,15.70
2011,05,20,10,50,15.80
2011,05,20,10,51,15.90
2011,05,20,10,52,15.90
2011,05,20,10,53,15.90
2011,05,20,10,54,15.90
2011,05,20,10,55,15.90
2011,05,20,10,56,15.70
2011,05,20,10,57,15.50
2011,05,20,10,58,15.50
2011,05,20,10,59,15.40
2011,05,20,11,00,15.50
2011,05,20,11,01,15.50
2011,05,20,11,02,15.60
2011,05,20,11,03,15.60
2011,05,20,11,04,15.60
2011,05,20,11,05,15.50
2011,05,20,11,06,15.50
2011,05,20,11,07,15.30
2011,05,20,11,08,15.20
2011,05,20,11,09,15.10
2011,05,20,11,10,15.00
2011,05,20,11,11,14.90
2011,05,20,11,12,14.90
2011,05,20,11,13,14.80
2011,05,20,11,14,14.80
2011,05,20,11,15,14.80
2011,05,20,11,16,14.80
2011,05,20,11,17,14.80
2011,05,20,11,18,14.90
2011,05,20,11,19,14.90
2011,05,20,11,20,14.90
2011,05,20,11,21,15.00
2011,05,20,11,22,15.00
2011,05,20,11,23,15.00
2011,05,20,11,24,15.00
2011,05,20,11,25,15.00
2011,05,20,11,26,15.00
2011,05,20,11,27,15.10
2011,05,20,11,28,15.10
2011,05,20,11,29,15.10
2011,05,20,11,30,15.20
2011,05,20,11,31,15.20
2011,05,20,11,32,15.20
2011,05,20,11,33,15.30
2011,05,20,11,34,15.30
2011,05,20,11,35,15.50
2011,05,20,11,36,15.60
2011,05,20,11,37,15.80
2011,05,20,11,38,16.00
2011,05,20,11,39,16.20
2011,05,20,11,40,16.30
2011,05,20,11,41,16.40
2011,05,20,11,42,16.30
2011,05,20,11,43,16.20
2011,05,20,11,44,16.10
2011,05,20,11,45,16.20
2011,05,20,11,46,16.30
2011,05,20,11,47,16.40
2011,05,20,11,48,16.50
2011,05,20,11,49,16.50
2011,05,20,11,50,16.60
2011,05,20,11,51,16.70
2011,05,20,11,52,16.70
2011,05,20,11,53,16.80
2011,05,20,11,54,16.80
2011,05,20,11,55,17.00
2011,05,20,11,56,17.10
2011,05,20,11,57,17.20
2011,05,20,11,58,17.30
2011,05,20,11,59,17.50
2011,05,20,12,00,17.60
2011,05,20,12,01,17.80
2011,05,20,12,02,18.00
2011,05,20,12,03,18.10
2011,05,20,12,04,18.30
2011,05,20,12,05,18.40
2011,05,20,12,06,18.50
2011,05,20,12,07,18.60
2011,05,20,12,08,18.60
2011,05,20,12,09,18.60
2011,05,20,12,10,18.60
2011,05,20,12,11,18.50
2011,05,20,12,12,18.50
2011,05,20,12,13,18.40
2011,05,20,12,14,18.40
2011,05,20,12,15,18.30
2011,05,20,12,16,18.30
2011,05,20,12,17,18.30
2011,05,20,12,18,18.30
2011,05,20,12,19,18.30
2011,05,20,12,20,18.30
2011,05,20,12,21,18.30
2011,05,20,12,22,18.30
2011,05,20,12,23,18.30
2011,05,20,12,24,18.30
2011,05,20,12,25,18.20
2011,05,20,12,26,18.20
2011,05,20,12,27,18.20
2011,05,20,12,28,18.20
2011,05,20,12,29,18.20
2011,05,20,12,30,18.20
2011,05,20,12,31,18.20
2011,05,20,12,32,18.20
2011,05,20,12,33,18.30
2011,05,20,12,34,18.40
2011,05,20,12,35,18.50
2011,05,20,12,36,18.70
2011,05,20,12,37,18.80
2011,05,20,12,38,18.80
2011,05,20,12,39,18.90
2011,05,20,12,40,19.00
2011,05,20,12,41,19.10
2011,05,20,12,42,19.20
2011,05,20,12,43,19.20
2011,05,20,12,44,19.40
2011,05,20,12,45,19.50
2011,05,20,12,46,19.60
2011,05,20,12,47,19.80
2011,05,20,12,48,20.00
2011,05,20,12,49,20.20
2011,05,20,12,50,20.30
2011,05,20,12,51,20.40
2011,05,20,12,52,20.40
2011,05,20,12,53,20.50
2011,05,20,12,54,20.50
2011,05,20,12,55,20.50
2011,05,20,12,56,20.50
2011,05,20,12,57,20.40
2011,05,20,12,58,20.30
2011,05,20,12,59,20.30
2011,05,20,13,00,20.40
2011,05,20,13,01,20.50
2011,05,20,13,02,20.50
2011,05,20,13,03,20.60
2011,05,20,13,04,20.80
2011,05,20,13,05,21.00
2011,05,20,13,06,21.30
2011,05,20,13,07,21.50
2011,05,20,13,08,21.80
2011,05,20,13,09,22.10
2011,05,20,13,10,22.50
2011,05,20,13,11,22.80
2011,05,20,13,12,22.80
2011,05,20,13,13,22.70
2011,05,20,13,14,22.40
2011,05,20,13,15,22.20
2011,05,20,13,16,22.10
2011,05,20,13,17,22.10
2011,05,20,13,18,22.20
2011,05,20,13,19,22.30
2011,05,20,13,20,22.50
2011,05,20,13,21,22.60
2011,05,20,13,22,22.70
2011,05,20,13,23,22.80
2011,05,20,13,24,22.90
2011,05,20,13,25,22.90
2011,05,20,13,26,23.00
2011,05,20,13,27,23.00
2011,05,20,13,28,22.90
2011,05,20,13,29,22.50
2011,05,20,13,30,22.00
2011,05,20,13,31,21.10
2011,05,20,13,32,20.40
2011,05,20,13,33,19.90
2011,05,20,13,34,19.60
2011,05,20,13,35,19.40
2011,05,20,13,36,19.30
2011,05,20,13,37,19.00
2011,05,20,13,38,18.80
2011,05,20,13,39,18.80
2011,05,20,13,40,18.90
2011,05,20,13,41,18.90
2011,05,20,13,42,18.80
2011,05,20,13,43,18.70
2011,05,20,13,44,18.60
2011,05,20,13,45,18.40
2011,05,20,13,46,18.30
2011,05,20,13,47,18.30
2011,05,20,13,48,18.20
2011,05,20,13,49,18.10
2011,05,20,13,50,18.10
2011,05,20,13,51,18.10
2011,05,20,13,52,18.00
2011,05,20,13,53,18.00
2011,05,20,13,54,18.00
2011,05,20,13,55,18.00
2011,05,20,13,56,18.00
2011,05,20,13,57,18.10
2011,05,20,13,58,18.10
2011,05,20,13,59,18.20
2011,05,20,14,00,18.20
2011,05,20,14,01,18.20
2011,05,20,14,02,18.20
2011,05,20,14,03,18.10
2011,05,20,14,04,18.10
2011,05,20,14,05,18.00
2011,05,20,14,06,18.00
2011,05,20,14,07,17.90
2011,05,20,14,08,17.90
2011,05,20,14,09,17.80
2011,05,20,14,10,17.90
2011,05,20,14,11,17.90
2011,05,20,14,12,17.90
2011,05,20,14,13,17.90
2011,05,20,14,14,17.80
2011,05,20,14,15,17.80
2011,05,20,14,16,17.80
2011,05,20,14,17,17.70
2011,05,20,14,18,17.50
2011,05,20,14,19,17.50
2011,05,20,14,20,17.60
2011,05,20,14,21,17.80
2011,05,20,14,22,17.90
2011,05,20,14,23,17.90
2011,05,20,14,24,17.90
2011,05,20,14,25,17.90
2011,05,20,14,26,17.80
2011,05,20,14,27,17.80
2011,05,20,14,28,18.00
2011,05,20,14,29,18.10
2011,05,20,14,30,18.20
2011,05,20,14,31,18.20
2011,05,20,14,32,18.10
2011,05,20,14,33,18.10
2011,05,20,14,34,18.10
2011,05,20,14,35,18.10
2011,05,20,14,36,18.10
2011,05,20,14,37,18.10
2011,05,20,14,38,18.10
2011,05,20,14,39,18.10
2011,05,20,14,40,18.10
2011,05,20,14,41,18.20
2011,05,20,14,42,18.20
2011,05,20,14,43,18.20
2011,05,20,14,44,18.00
2011,05,20,14,45,17.90
2011,05,20,14,46,17.70
2011,05,20,14,47,17.60
2011,05,20,14,48,17.60
2011,05,20,14,49,17.70
2011,05,20,14,50,17.80
2011,05,20,14,51,18.00
2011,05,20,14,52,18.10
2011,05,20,14,53,18.10
2011,05,20,14,54,18.00
2011,05,20,14,55,18.00
2011,05,20,14,56,18.00
2011,05,20,14,57,18.00
2011,05,20,14,58,17.90
2011,05,20,14,59,18.00
2011,05,20,15,00,18.00
2011,05,20,15,01,18.10
2011,05,20,15,02,18.30
2011,05,20,15,03,18.40
2011,05,20,15,04,18.50
2011,05,20,15,05,18.60
2011,05,20,15,06,18.50
2011,05,20,15,07,18.40
2011,05,20,15,08,18.30
2011,05,20,15,09,18.30
2011,05,20,15,10,18.30
2011,05,20,15,11,18.40
2011,05,20,15,12,18.40
2011,05,20,15,13,18.30
2011,05,20,15,14,18.20
2011,05,20,15,15,18.20
2011,05,20,15,16,18.10
2011,05,20,15,17,18.10
2011,05,20,15,18,18.10
2011,05,20,15,19,18.10
2011,05,20,15,20,18.20
2011,05,20,15,21,18.20
2011,05,20,15,22,18.20
2011,05,20,15,23,18.30
2011,05,20,15,24,18.30
2011,05,20,15,25,18.30
2011,05,20,15,26,18.30
2011,05,20,15,27,18.30
2011,05,20,15,28,18.30
2011,05,20,15,29,18.30
2011,05,20,15,30,18.30
2011,05,20,15,31,18.20
2011,05,20,15,32,18.10
2011,05,20,15,33,18.10
2011,05,20,15,34,18.10
2011,05,20,15,35,18.00
2011,05,20,15,36,18.00
2011,05,20,15,37,18.10
2011,05,20,15,38,18.10
2011,05,20,15,39,18.10
2011,05,20,15,40,18.10
2011,05,20,15,41,18.00
2011,05,20,15,42,18.00
2011,05,20,15,43,18.00
2011,05,20,15,44,18.00
2011,05,20,15,45,18.00
2011,05,20,15,46,18.00
2011,05,20,15,47,18.00
2011,05,20,15,48,18.00
2011,05,20,15,49,18.00
2011,05,20,15,50,18.00
2011,05,20,15,51,18.00
2011,05,20,15,52,18.00
2011,05,20,15,53,18.00
2011,05,20,15,54,18.10
2011,05,20,15,55,18.10
2011,05,20,15,56,18.20
2011,05,20,15,57,18.10
2011,05,20,15,58,18.10
2011,05,20,15,59,18.10
2011,05,20,16,00,18.20
2011,05,20,16,01,18.20
2011,05,20,16,02,18.20
2011,05,20,16,03,18.20
2011,05,20,16,04,18.20
2011,05,20,16,05,18.20
2011,05,20,16,06,18.10
2011,05,20,16,07,18.00
2011,05,20,16,08,17.80
2011,05,20,16,09,17.80
2011,05,20,16,10,17.70
2011,05,20,16,11,17.60
2011,05,20,16,12,17.70
2011,05,20,16,13,17.60
2011,05,20,16,14,17.60
2011,05,20,16,15,17.50
2011,05,20,16,16,17.40
2011,05,20,16,17,17.40
2011,05,20,16,18,17.30
2011,05,20,16,19,17.30
2011,05,20,16,20,17.30
2011,05,20,16,21,17.50
2011,05,20,16,22,17.60
2011,05,20,16,23,17.50
2011,05,20,16,24,17.50
2011,05,20,16,25,17.60
2011,05,20,16,26,17.70
2011,05,20,16,27,17.60
2011,05,20,16,28,17.50
2011,05,20,16,29,17.50
2011,05,20,16,30,17.50
2011,05,20,16,31,17.50
2011,05,20,16,32,17.50
2011,05,20,16,33,17.60
2011,05,20,16,34,17.60
2011,05,20,16,35,17.50
2011,05,20,16,36,17.50
2011,05,20,16,37,17.50
2011,05,20,16,38,17.50
2011,05,20,16,39,17.50
2011,05,20,16,40,17.40
2011,05,20,16,41,17.30
2011,05,20,16,42,17.20
2011,05,20,16,43,17.20
2011,05,20,16,44,17.10
2011,05,20,16,45,17.20
2011,05,20,16,46,17.10
2011,05,20,16,47,17.10
2011,05,20,16,48,17.20
2011,05,20,16,49,17.20
2011,05,20,16,50,17.20
2011,05,20,16,51,17.20
2011,05,20,16,52,17.20
2011,05,20,16,53,17.30
2011,05,20,16,54,17.30
2011,05,20,16,55,17.20
2011,05,20,16,56,17.20
2011,05,20,16,57,17.20
2011,05,20,16,58,17.20
2011,05,20,16,59,17.20
2011,05,20,17,00,17.20
2011,05,20,17,01,17.20
2011,05,20,17,02,17.20
2011,05,20,17,03,17.10
2011,05,20,17,04,17.10
2011,05,20,17,05,17.00
2011,05,20,17,06,17.10
2011,05,20,17,07,17.10
2011,05,20,17,08,17.10
2011,05,20,17,09,17.00
2011,05,20,17,10,16.90
2011,05,20,17,11,16.80
2011,05,20,17,12,16.70
2011,05,20,17,13,16.70
2011,05,20,17,14,16.70
2011,05,20,17,15,16.70
2011,05,20,17,16,16.70
2011,05,20,17,17,16.70
2011,05,20,17,18,16.80
2011,05,20,17,19,16.80
2011,05,20,17,20,16.80
2011,05,20,17,21,16.80
2011,05,20,17,22,16.80
2011,05,20,17,23,16.90
2011,05,20,17,24,16.90
2011,05,20,17,25,16.80
2011,05,20,17,26,16.80
2011,05,20,17,27,16.80
2011,05,20,17,28,16.80
2011,05,20,17,29,16.80
2011,05,20,17,30,16.80
2011,05,20,17,31,16.70
2011,05,20,17,32,16.70
2011,05,20,17,33,16.70
2011,05,20,17,34,16.70
2011,05,20,17,35,16.70
2011,05,20,17,36,16.70
2011,05,20,17,37,16.60
2011,05,20,17,38,16.60
2011,05,20,17,39,16.60
2011,05,20,17,40,16.60